Location: *
(46.1200°N, 11.2700°E)
Time: 05:52:30
(UTC+00:00)

ERBS - Pass Details

Date: 02 March 2021
Orbit: 408 x 412 km, 57.0° (Epoch: 13 April)

Event Time Altitude Azimuth Distance (km) Brightness Sun altitude
Rises 18:09:37 0° 250° (WSW) 2,346 7.4 -12.4°
Reaches altitude 10° 18:11:48 10° 259° (W) 1,486 6.4 -12.7°
Maximum altitude 18:14:54 37° 329° (NNW) 663 3.6 -13.3°
Enters shadow 18:17:49 11° 37° (NE) 1,409 4.6 -13.8°
